TimeEDT,TemperatureF,Dew PointF,Humidity,Sea Level PressureIn,VisibilityMPH,Wind Direction,Wind SpeedMPH,Gust SpeedMPH,PrecipitationIn,Events,Conditions,WindDirDegrees,DateUTC
12:53 AM,57.9,51.1,78,30.21,10.0,ESE,3.5,-,N/A,,Clear,120,2013-03-31 04:53:00
1:53 AM,59.0,50.0,72,30.20,10.0,Calm,Calm,-,N/A,,Clear,0,2013-03-31 05:53:00
2:53 AM,59.0,50.0,72,30.18,10.0,SE,5.8,-,N/A,,Clear,140,2013-03-31 06:53:00
3:53 AM,57.9,50.0,75,30.17,10.0,SE,3.5,-,N/A,,Clear,140,2013-03-31 07:53:00
4:53 AM,55.9,51.1,84,30.17,10.0,Calm,Calm,-,N/A,,Clear,0,2013-03-31 08:53:00
5:53 AM,55.9,52.0,87,30.16,10.0,SE,5.8,-,N/A,,Clear,130,2013-03-31 09:53:00
6:53 AM,55.0,52.0,89,30.17,10.0,ESE,4.6,-,N/A,,Clear,120,2013-03-31 10:53:00
7:53 AM,55.9,53.1,90,30.17,10.0,ESE,5.8,-,N/A,,Clear,120,2013-03-31 11:53:00
8:53 AM,64.9,55.9,73,30.19,10.0,SE,5.8,-,N/A,,Clear,130,2013-03-31 12:53:00
9:53 AM,71.1,57.0,61,30.19,10.0,SE,10.4,-,N/A,,Clear,130,2013-03-31 13:53:00
10:53 AM,75.0,55.9,51,30.19,10.0,South,9.2,-,N/A,,Clear,170,2013-03-31 14:53:00
11:53 AM,79.0,55.9,45,30.17,10.0,South,10.4,18.4,N/A,,Partly Cloudy,180,2013-03-31 15:53:00
12:53 PM,78.1,55.9,46,30.16,10.0,WSW,10.4,-,N/A,,Partly Cloudy,250,2013-03-31 16:53:00
1:53 PM,81.0,54.0,39,30.13,10.0,WSW,15.0,-,N/A,,Scattered Clouds,240,2013-03-31 17:53:00
2:53 PM,82.0,53.1,37,30.11,10.0,WSW,18.4,21.9,N/A,,Clear,250,2013-03-31 18:53:00
3:53 PM,81.0,55.9,42,30.08,10.0,WSW,19.6,-,N/A,,Clear,250,2013-03-31 19:53:00
4:53 PM,79.0,57.0,47,30.07,10.0,WSW,17.3,-,N/A,,Clear,250,2013-03-31 20:53:00
5:53 PM,77.0,59.0,54,30.06,10.0,WSW,13.8,-,N/A,,Clear,250,2013-03-31 21:53:00
6:53 PM,75.0,59.0,57,30.06,10.0,WSW,12.7,-,N/A,,Clear,250,2013-03-31 22:53:00
7:53 PM,72.0,60.1,66,30.06,10.0,SW,6.9,-,N/A,,Clear,230,2013-03-31 23:53:00
8:53 PM,69.1,61.0,75,30.07,10.0,WSW,4.6,-,N/A,,Clear,240,2013-04-01 00:53:00
9:53 PM,66.0,60.1,81,30.07,10.0,Calm,Calm,-,N/A,,Clear,0,2013-04-01 01:53:00
10:53 PM,63.0,59.0,87,30.08,10.0,Calm,Calm,-,N/A,,Clear,0,2013-04-01 02:53:00
11:53 PM,62.1,59.0,90,30.09,10.0,Calm,Calm,-,N/A,,Clear,0,2013-04-01 03:53:00